CZ-2D DEB, 44619

Orbit data source: Space-Track

CZ-2D DEB, 44619 is space debris in SSO originally from a launch on Sat, 02 Jun 2018 UTC launched from the Jiuquan Satellite Launch Center, China (JSC). Debris objects in space refer to the collection of defunct objects orbiting the Earth. Examples of debris include non-operational satellites, rocket bodies, and fragments generated from explosions, collisions, or faulty payload assembly.

Loading next visibility...
Identifier
44619, 2018-048F
Orbit
SSO
Country
Flag of CNCN / PRC
Related business
Manufacturer
CALT
Mission
Spacecraft
Bus & Motor
Unknown
Mass
1 kg wet, 1 kg dry
Launch date (UTC)
2018-06-02 (8 years ago)
Launch vehicle
Unknown
Launch site
Jiuquan Satellite Launch Center, China (JSC)
Object type
Payload
Rocket body
Debris
Shape & HBR
Cone, 0.1 m
Radar Cross Section
0.025 m², Small (<0.1 m²)

Expand to show TLE details & history
Last TLE update: 14 hours ago

TLE from 14 hours ago
0 CZ-2D DEB
1 44619U 18048F   26125.54195558  .00005167  00000-0  38016-3 0  9993
2 44619  98.2969 329.8826 0011619   3.2613 356.8684 15.03833348425245
Epoch: 2026-05-05T13:00Z
TLE epoch observation values (Epoch: 2026-05-05T13:00:24.962Z)
Latitude
-0.00004°
Longitude
-88.63671°
Altitude
550.085 km
Speed
7.591 km/s
True Right ascension
21h 59m 31s
True Declination
0° 00' 00"
Sunlit
Object was in daylight at epoch
Visualization orbit readout
Latitude
Unknown
Longitude
Unknown
Altitude
Unknown
Speed
Unknown
Apparent Right ascension
Unknown
Apparent Declination
Unknown
Sunlit
N/A
Visualization observer readout
Local Sidereal Time
11:02:06
Azimuth
Unknown
Elevation
Unknown
Doppler factor
Unknown
Orbital elements
Apogee altitude
560.169 km
Perigee altitude
544.064 km
Semi-major axis
6,930.254 km
Eccentricity
0.00116
Inclination
98.2969°
RAAN
329.8826°
Arg. of periapsis
3.2613°
True anomaly
356.86112°
Mean anomaly
356.8684°
Eccentric anomaly
356.86476°
Mean motion
3.76201 °/min
Orbital period
95.69 mins
BSTAR
0.00038016
Loading maneuver chart data...
Computing Atmospheric mass density...
Loading historical data...
Loading historical data...
Loading historical data...
Loading historical data...
Loading historical data...
Loading historical data...
Loading historical data...
Other satellites on launch #48 in the year 2018 (2018-06-02 UTC)

Documentation

Showing up to 5 results
|